Phoenix, AZ

3:34 AM MST on February 25, 2017 (GMT -0700)
Phoenix Sky Harbor International

Weather History for KPHX - June, 2013

Change the Weather History Date:

Friday, June 21, 2013

  Actual Average Record
Temperature  
Mean Temperature 92 °F 92 °F  
Max Temperature 107 °F 105 °F 115 °F (1968)
Min Temperature 77 °F 79 °F 57 °F (1923)
Degree Days  
Heating Degree Days 0 0  
Month to date heating degree days 0 0  
Since 1 June heating degree days 0 0  
Since 1 July heating degree days 881 935  
Cooling Degree Days 27 27  
Month to date cooling degree days 622 518  
Year to date cooling degree days 1720 1404  
Since 1 June cooling degree days 622 518  
Growing Degree Days 42 (Base 50)    
Moisture  
Dew Point 27 °F    
Average Humidity 13    
Maximum Humidity 21    
Minimum Humidity 5    
Precipitation  
Precipitation 0.00 in 0.00 in 0.27 in (1972)
Month to date precipitation 0.00 0.01  
Year to date precipitation 2.61 3.22  
Snow  
Snow 0.00 in - - ()
Month to date snowfall 0.0  
Year to date snowfall 0.0  
Since 1 July snowfall 0.0  
Snow Depth 0.00 in    
Sea Level Pressure  
Sea Level Pressure 29.69 in    
Wind  
Wind Speed 7 mph (SSW)    
Max Wind Speed 20 mph    
Max Gust Speed 22 mph    
Visibility 10 miles    
Events      
T = Trace of Precipitation, MM = Missing Value Source: NWS Daily Summary

Daily Weather History Graph

Daily Weather History Graph

Search for Another Location

Airport or City:

Trip Planner

Search our weather history database for the weather conditions in past years. The results will help you decide how hot, cold, wet, or windy it might be!

Date:

Astronomy

Jun. 21, 2013 Rise Set
Actual Time 5:18 AM MST 7:41 PM MST
Civil Twilight 4:49 AM MST 8:10 PM MST
Nautical Twilight 4:14 AM MST 8:45 PM MST
Astronomical Twilight 3:35 AM MST 9:24 PM MST
Moon 5:58 PM MST (6/21) 3:33 AM MST (6/21)
Length of Visible Light 15h 20m
Length of Day
14h 22m
Waxing Gibbous, 96% of the Moon is Illuminated
Jun 21
Waxing Gibbous
Jun 23
Full
Jun 29
Last Quarter
Jul 8
New
Jul 15
First Quarter

Hourly Weather History & Observations

Time (MST) Temp. Dew Point Humidity Pressure Visibility Wind Dir Wind Speed Gust Speed Precip Events Conditions
12:51 AM 91.9 °F 27.0 °F 10% 29.67 in 10.0 mi North 5.8 mph - N/A   Clear
1:51 AM 84.9 °F 34.0 °F 16% 29.68 in 10.0 mi SSE 6.9 mph - N/A   Clear
2:51 AM 84.0 °F 33.1 °F 16% 29.69 in 10.0 mi East 8.1 mph - N/A   Clear
3:51 AM 81.0 °F 37.9 °F 21% 29.70 in 10.0 mi East 8.1 mph - N/A   Clear
4:51 AM 78.1 °F 35.1 °F 21% 29.71 in 10.0 mi East 8.1 mph - N/A   Clear
5:51 AM 78.1 °F 35.1 °F 21% 29.72 in 10.0 mi East 5.8 mph - N/A   Partly Cloudy
6:51 AM 81.0 °F 34.0 °F 18% 29.74 in 10.0 mi East 10.4 mph - N/A   Partly Cloudy
7:51 AM 84.9 °F 33.1 °F 16% 29.76 in 10.0 mi SE 8.1 mph - N/A   Partly Cloudy
8:51 AM 88.0 °F 33.1 °F 14% 29.77 in 10.0 mi ESE 6.9 mph - N/A   Mostly Cloudy
9:51 AM 93.0 °F 30.0 °F 11% 29.77 in 10.0 mi Calm Calm - N/A   Mostly Cloudy
10:51 AM 96.1 °F 26.1 °F 8% 29.77 in 10.0 mi Calm Calm - N/A   Mostly Cloudy
11:51 AM 98.1 °F 25.0 °F 7% 29.75 in 10.0 mi NNW 4.6 mph - N/A   Mostly Cloudy
12:51 PM 100.9 °F 23.0 °F 6% 29.73 in 10.0 mi Variable 5.8 mph - N/A   Mostly Cloudy
1:51 PM 102.9 °F 21.0 °F 5% 29.71 in 10.0 mi South 9.2 mph - N/A   Mostly Cloudy
2:51 PM 104.0 °F 19.9 °F 5% 29.68 in 10.0 mi SSE 6.9 mph - N/A   Mostly Cloudy
3:51 PM 104.0 °F 19.9 °F 5% 29.66 in 10.0 mi WNW 6.9 mph - N/A   Scattered Clouds
4:51 PM 104.0 °F 21.0 °F 5% 29.64 in 10.0 mi West 5.8 mph 16.1 mph N/A   Scattered Clouds
5:51 PM 104.0 °F 21.0 °F 5% 29.62 in 10.0 mi NW 4.6 mph - N/A   Scattered Clouds
6:51 PM 104.0 °F 21.0 °F 5% 29.62 in 10.0 mi NW 11.5 mph - N/A   Scattered Clouds
7:51 PM 100.9 °F 19.0 °F 5% 29.63 in 10.0 mi West 15.0 mph - N/A   Partly Cloudy
8:51 PM 96.1 °F 24.1 °F 8% 29.64 in 10.0 mi WSW 9.2 mph - N/A   Partly Cloudy
9:51 PM 95.0 °F 24.1 °F 8% 29.66 in 10.0 mi WSW 6.9 mph - N/A   Clear
10:51 PM 95.0 °F 25.0 °F 8% 29.66 in 10.0 mi West 5.8 mph - N/A   Clear
11:51 PM 93.0 °F 26.1 °F 9% 29.66 in 10.0 mi Calm Calm - N/A   Clear